Rechercher aéroport 
image banner adimage banner adimage banner ad
image banner ad

CN16 - Mercy Hospital Of Folsom

Situé à Folsom, United States

ICAO - CN16, IATA -

Données fournies par Airmate  

Information générale

Coordonnées: N38°40'15" W121°8'34"
Élévation : 335 feet MSL.
 
Voir autres Aéroports à California

Données opérationnelles

Special qualification required
Heure actuelle UTC:
Heure actuelle locale:
Météo à : KMHR - Sacramento Mather ( 19 km )
METAR: KMHR 292345Z 23003G10KT 10SM SCT250 39/10 A2979
TAF: KMHR 292350Z 3000/3024 22008KT P6SM FEW200 FM300600 15005KT P6SM FEW150 FM302200 23006KT P6SM FEW250
Voir NOTAMs / SUP AIP / TFR affectant cet aéroport [VIEW]
Fréquences de communication: [VIEW]

Pistes:

Coordonnées de l'aéroport

Adresse: Folsom United States

Vue satellite de CN16